User: anonymous   Login
Location: Unspecified
(0.0000°N, 0.0000°E)
Time: 00:46:11
(UTC+00:00)
Language:

STARLINK-34943 - Orbit

View from above orbital plane
View from above orbital plane
View from above satellite
View from above satellite

Ground track
Ground track

The orbit is defined by the following mean orbital elements,

1 65366U          26145.36795313 +.00000000 +00000-0 +84433-3 0 00009
2 65366  53.1580 172.1095 0001154  68.4926 291.6199 15.33564765    03
Epoch (UTC): 25 May 2026 08:49:51
Eccentricity: 0.0001154
inclination: 53.1580°
perigee height: 464 km
apogee height: 466 km
right ascension of ascending node: 172.1095°
argument of perigee: 68.4926°
revolutions per day: 15.33564765
mean anomaly at epoch: 291.6199°

The dashed part of the orbit path shows where the satellite is in the earth's shadow,  

DLR